DW8851 Weather Reports


Display with metric or nautical units.
time (UTC)temp
F
wind
direction
speed
MPH
gust
MPH
rain 1hr
in
rain 24hr
in
rain mn
in
humidity
%
barometer
mb
20210731193145 74 207 0.0 4.0 0.00 0.05 0.00 50 1013.4
20210731192606 74 284 1.0 3.0 0.00 0.05 0.00 51 1013.6
20210731192103 74 80 1.0 3.0 0.00 0.05 0.00 50 1013.5
20210731191641 74 231 0.0 5.0 0.00 0.05 0.00 51 1013.6
20210731191053 73 27 0.0 5.0 0.00 0.05 0.00 54 1013.6
20210731190559 73 227 1.0 6.0 0.00 0.05 0.00 51 1013.6
20210731185552 72 360 1.0 4.0 0.00 0.06 0.00 49 1013.6
20210731185051 73 274 1.0 4.0 0.00 0.06 0.00 48 1013.6
20210731184715 72 250 1.0 4.0 0.00 0.06 0.00 50 1013.6
20210731184051 73 49 1.0 4.0 0.00 0.06 0.00 52 1013.5
20210731183615 73 260 1.0 4.0 0.00 0.06 0.00 51 1013.5
20210731183127 73 279 2.0 4.0 0.00 0.06 0.00 52 1013.5
20210731182552 72 269 1.0 4.0 0.00 0.06 0.00 50 1013.5
20210731182048 74 16 2.0 5.0 0.00 0.06 0.00 50 1013.6
20210731181604 73 94 1.0 5.0 0.00 0.06 0.00 53 1013.6
20210731181048 73 288 0.0 4.0 0.00 0.06 0.00 52 1013.6
20210731180559 73 267 1.0 4.0 0.00 0.06 0.00 51 1013.6
20210731180156 73 27 0.0 2.0 0.00 0.06 0.00 51 1013.6
20210731175549 72 299 0.0 4.0 0.00 0.09 0.00 51 1013.7
20210731175050 73 350 1.0 4.0 0.00 0.09 0.00 52 1013.9
20210731174629 73 277 1.0 6.0 0.00 0.09 0.00 52 1014.0
20210731174049 72 158 2.0 6.0 0.00 0.09 0.00 50 1013.9
20210731173543 72 251 1.0 5.0 0.00 0.09 0.00 54 1014.1
20210731173107 72 304 1.0 3.0 0.00 0.09 0.00 51 1014.1
20210731172542 72 285 0.0 4.0 0.00 0.09 0.00 53 1014.1
20210731172042 72 290 1.0 4.0 0.00 0.09 0.00 53 1014.2
20210731171612 72 155 0.0 4.0 0.00 0.09 0.00 57 1014.2
20210731171041 71 272 0.0 3.0 0.00 0.09 0.00 57 1014.2
20210731170544 71 248 0.0 5.0 0.00 0.09 0.00 55 1014.2
20210731170111 71 328 2.0 5.0 0.00 0.09 0.00 52 1014.2
20210731165543 71 35 1.0 4.0 0.00 0.12 0.00 52 1014.2
20210731165100 71 285 1.0 5.0 0.00 0.12 0.00 56 1014.4
20210731164631 70 274 2.0 6.0 0.00 0.12 0.00 55 1014.5
20210731164037 70 337 1.0 5.0 0.00 0.12 0.00 56 1014.5
20210731163543 70 5 0.0 5.0 0.00 0.12 0.00 55 1014.6
20210731163059 71 268 1.0 5.0 0.00 0.12 0.00 54 1014.6
20210731162536 70 302 1.0 7.0 0.00 0.12 0.00 56 1014.6
20210731162037 70 184 1.0 7.0 0.00 0.12 0.00 53 1014.6
20210731161639 70 298 2.0 7.0 0.00 0.12 0.00 57 1014.7
20210731161034 70 281 1.0 7.0 0.00 0.12 0.00 57 1014.7
20210731160532 70 288 0.0 5.0 0.00 0.12 0.00 56 1014.7
20210731160058 70 95 1.0 7.0 0.00 0.12 0.00 52 1014.7
20210731155534 70 232 2.0 7.0 0.00 0.15 0.00 54 1014.7
20210731155041 69 286 1.0 6.0 0.00 0.15 0.00 58 1014.6
20210731154035 69 58 1.0 6.0 0.00 0.15 0.00 54 1014.6
20210731153527 70 250 1.0 8.0 0.00 0.15 0.00 54 1014.6
20210731153058 69 5 0.0 8.0 0.00 0.15 0.00 58 1014.6
20210731152525 69 272 1.0 4.0 0.00 0.15 0.00 58 1014.6
20210731152024 69 292 1.0 8.0 0.00 0.15 0.00 60 1014.7
20210731151528 69 327 2.0 8.0 0.00 0.15 0.00 61 1014.6
20210731151023 69 286 1.0 6.0 0.00 0.15 0.00 62 1014.7
20210731150521 68 44 2.0 5.0 0.00 0.15 0.00 58 1014.6
20210731150106 68 22 1.0 5.0 0.00 0.15 0.00 57 1014.5
20210731145518 68 266 1.0 5.0 0.00 0.18 0.00 58 1014.7
20210731145022 67 15 1.0 4.0 0.00 0.18 0.00 58 1014.7
20210731144616 68 178 1.0 4.0 0.00 0.18 0.00 63 1014.8
20210731144015 67 5 1.0 4.0 0.00 0.18 0.00 60 1014.8
20210731143513 67 229 0.0 5.0 0.00 0.18 0.00 60 1014.9
20210731143030 67 258 1.0 5.0 0.00 0.18 0.00 60 1015.0
20210731142510 67 288 2.0 4.0 0.00 0.18 0.00 58 1014.9
20210731142009 66 291 1.0 10.0 0.00 0.18 0.00 58 1014.9
20210731141511 67 234 1.0 10.0 0.00 0.18 0.00 59 1014.9
20210731141006 66 309 1.0 4.0 0.00 0.18 0.00 61 1014.7
20210731140521 66 56 0.0 4.0 0.00 0.18 0.00 60 1014.7
20210731140006 66 61 1.0 4.0 0.00 0.18 0.00 60 1014.7
20210731135507 66 88 0.0 4.0 0.00 0.22 0.00 63 1014.7
20210731135001 66 281 1.0 4.0 0.00 0.22 0.00 59 1014.8
20210731134620 66 279 2.0 4.0 0.00 0.22 0.00 58 1014.7
20210731134105 65 16 1.0 5.0 0.00 0.22 0.00 62 1014.9
20210731133557 65 288 1.0 5.0 0.00 0.22 0.00 62 1014.9
20210731133141 65 175 1.0 4.0 0.00 0.22 0.00 63 1014.8
20210731132553 65 259 2.0 4.0 0.00 0.22 0.00 65 1014.8
20210731132100 65 295 0.0 3.0 0.00 0.22 0.00 65 1014.8
20210731131626 65 11 0.0 4.0 0.00 0.22 0.00 71 1014.9
20210731131049 64 11 1.0 4.0 0.00 0.22 0.00 65 1014.9
20210731130548 64 212 1.0 4.0 0.00 0.22 0.00 67 1014.9
20210731130127 63 62 1.0 4.0 0.00 0.22 0.00 66 1015.0
20210731125604 63 141 1.0 5.0 0.00 0.26 0.00 66 1015.0
20210731125044 63 310 0.0 5.0 0.00 0.26 0.00 69 1015.0
20210731124554 63 345 1.0 6.0 0.00 0.26 0.00 70 1015.0
20210731124057 62 355 1.0 6.0 0.00 0.26 0.00 68 1014.9
20210731123557 62 301 0.0 7.0 0.00 0.26 0.00 71 1014.9
20210731123128 62 5 1.0 7.0 0.00 0.26 0.00 68 1014.9
20210731122543 62 232 1.0 7.0 0.00 0.26 0.00 72 1014.8
20210731122035 62 278 1.0 7.0 0.00 0.26 0.00 69 1014.8
20210731121547 61 292 0.0 2.0 0.00 0.26 0.00 70 1014.8
20210731121101 61 42 0.0 2.0 0.00 0.26 0.00 71 1014.8
20210731120541 60 42 0.0 3.0 0.00 0.26 0.00 71 1014.9
20210731120038 60 36 0.0 3.0 0.00 0.26 0.00 71 1014.8
20210731115536 60 5 0.0 3.0 0.00 0.30 0.00 74 1014.7
20210731115044 60 128 0.0 3.0 0.00 0.30 0.00 76 1014.7
20210731114529 59 128 1.0 3.0 0.00 0.30 0.00 74 1014.6
20210731114028 59 254 0.0 3.0 0.00 0.30 0.00 76 1014.5
20210731113528 59 335 0.0 2.0 0.00 0.30 0.00 75 1014.6
20210731113034 58 11 0.0 1.0 0.00 0.30 0.00 76 1014.5
20210731112527 58 11 0.0 1.0 0.00 0.30 0.00 76 1014.6
20210731112027 58 11 0.0 2.0 0.00 0.30 0.00 76 1014.6
20210731111609 58 11 0.0 2.0 0.00 0.30 0.00 77 1014.6
20210731111025 57 11 0.0 2.0 0.00 0.30 0.00 79 1014.6
20210731110524 57 146 0.0 0.0 0.00 0.30 0.00 80 1014.5
20210731110040 57 146 0.0 0.0 0.00 0.30 0.00 81 1014.5
20210731105523 57 146 0.0 1.0 0.00 0.34 0.00 80 1014.4
20210731105044 56 146 0.0 1.0 0.00 0.34 0.00 81 1014.4
20210731104550 56 146 0.0 1.0 0.00 0.34 0.00 81 1014.4
20210731104022 56 146 0.0 1.0 0.00 0.34 0.00 81 1014.4
20210731103527 56 146 0.0 2.0 0.00 0.34 0.00 82 1014.3
20210731103026 55 146 0.0 3.0 0.00 0.34 0.00 83 1014.4
20210731102519 55 145 1.0 3.0 0.00 0.34 0.00 83 1014.4
20210731102019 55 142 0.0 3.0 0.00 0.34 0.00 84 1014.3
20210731101553 55 198 0.0 2.0 0.00 0.34 0.00 85 1014.2
20210731101017 55 198 0.0 2.0 0.00 0.34 0.00 85 1014.1
20210731100516 55 198 0.0 1.0 0.00 0.34 0.00 85 1014.1
20210731100058 54 268 0.0 1.0 0.00 0.34 0.00 85 1014.0
20210731095517 55 268 0.0 1.0 0.00 0.39 0.00 84 1014.0
20210731095018 55 268 0.0 2.0 0.00 0.39 0.00 84 1013.8
20210731094520 55 268 0.0 2.0 0.00 0.39 0.00 83 1013.8
20210731094021 55 268 0.0 2.0 0.00 0.39 0.00 83 1013.7
20210731093534 54 268 0.0 1.0 0.00 0.39 0.00 85 1013.7
20210731093030 54 268 0.0 1.0 0.00 0.39 0.00 85 1013.8
20210731092514 54 268 0.0 1.0 0.00 0.39 0.00 85 1013.7
20210731092013 54 268 0.0 1.0 0.00 0.39 0.00 86 1013.9
20210731091522 54 268 0.0 2.0 0.00 0.39 0.00 85 1013.9
20210731091012 55 268 0.0 2.0 0.00 0.39 0.00 84 1013.9
20210731090510 55 268 0.0 1.0 0.00 0.39 0.00 84 1013.8
20210731090025 55 268 0.0 2.0 0.00 0.39 0.00 84 1013.7
20210731085511 56 268 0.0 2.0 0.00 0.44 0.00 83 1013.9
20210731085013 56 268 0.0 2.0 0.00 0.44 0.00 82 1013.8
20210731084551 56 268 0.0 2.0 0.00 0.44 0.00 83 1013.9
20210731084019 55 360 0.0 2.0 0.00 0.44 0.00 84 1013.7
20210731083509 54 285 0.0 1.0 0.00 0.44 0.00 85 1013.7
20210731083010 54 285 0.0 1.0 0.00 0.44 0.00 85 1013.7
20210731082514 54 285 0.0 1.0 0.00 0.44 0.00 85 1013.7
20210731082007 54 285 0.0 0.0 0.00 0.44 0.00 84 1013.7
20210731081508 55 285 0.0 0.0 0.00 0.44 0.00 84 1013.7
20210731081006 55 285 0.0 1.0 0.00 0.44 0.00 84 1013.8
20210731080507 55 285 0.0 1.0 0.00 0.44 0.00 83 1013.8
20210731080006 55 285 0.0 1.0 0.00 0.44 0.00 82 1013.8
20210731075504 55 285 0.0 0.0 0.00 0.50 0.00 82 1013.9
20210731075002 56 285 0.0 0.0 0.00 0.50 0.00 81 1014.0
20210731074510 56 285 0.0 1.0 0.00 0.50 0.00 81 1014.0
20210731074004 56 285 0.0 1.0 0.00 0.50 0.00 80 1014.0
20210731073600 57 285 0.0 2.0 0.00 0.50 0.00 80 1014.0
20210731073232 57 285 0.0 2.0 0.00 0.50 0.00 80 1013.8
20210731072607 57 290 0.0 1.0 0.00 0.50 0.00 80 1013.6
20210731072111 57 290 0.0 2.0 0.00 0.50 0.00 80 1013.7
20210731071658 57 290 0.0 2.0 0.00 0.50 0.00 80 1013.8
20210731071138 57 242 0.0 1.0 0.00 0.50 0.00 81 1013.8
20210731070557 57 242 0.0 3.0 0.00 0.50 0.00 81 1013.8
20210731070126 57 242 1.0 3.0 0.00 0.50 0.00 81 1013.9
20210731065619 57 221 0.0 2.0 0.00 0.56 0.00 81 1013.9
20210731065055 57 355 0.0 2.0 0.00 0.56 0.00 81 1013.9
20210731064602 57 355 0.0 2.0 0.00 0.56 0.00 81 1014.0
20210731064128 57 256 0.0 2.0 0.00 0.56 0.00 81 1014.0
20210731063554 58 249 0.0 2.0 0.00 0.56 0.00 82 1014.2
20210731063310 57 249 0.0 2.0 0.00 0.56 0.00 82 1014.2
20210731062553 57 249 0.0 1.0 0.00 0.56 0.00 83 1014.2
20210731062101 57 249 0.0 1.0 0.00 0.56 0.00 83 1014.1
20210731061631 58 249 0.0 0.0 0.00 0.56 0.00 83 1014.0
20210731061051 58 249 0.0 0.0 0.00 0.56 0.00 82 1013.9
20210731060551 58 249 0.0 0.0 0.00 0.56 0.00 82 1014.1
20210731060201 58 249 0.0 0.0 0.00 0.56 0.00 81 1014.1
20210731055548 58 249 0.0 0.0 0.00 0.64 0.00 80 1013.9
20210731055048 59 249 0.0 0.0 0.00 0.64 0.00 79 1014.0
20210731054619 59 249 0.0 0.0 0.00 0.64 0.00 78 1013.9
20210731054048 59 249 0.0 1.0 0.00 0.64 0.00 78 1013.9
20210731053546 59 249 0.0 1.0 0.00 0.64 0.00 77 1014.0
20210731053053 59 249 0.0 0.0 0.00 0.64 0.00 77 1014.1
20210731052544 59 249 0.0 1.0 0.00 0.64 0.00 77 1014.1
20210731052044 60 249 0.0 1.0 0.00 0.64 0.00 76 1014.0
20210731051630 60 249 0.0 1.0 0.00 0.64 0.00 76 1014.1
20210731051045 60 249 0.0 1.0 0.00 0.64 0.00 76 1013.9
20210731050547 60 249 0.0 1.0 0.00 0.64 0.00 75 1014.0
20210731050056 60 249 0.0 2.0 0.00 0.64 0.00 75 1014.3
20210731045541 60 249 0.0 2.0 0.00 0.71 0.00 74 1014.3
20210731045051 61 249 0.0 2.0 0.00 0.71 0.00 73 1014.1
20210731044610 61 249 0.0 2.0 0.00 0.71 0.00 73 1013.9
20210731044036 61 248 0.0 3.0 0.00 0.71 0.00 72 1013.8
20210731043536 62 297 1.0 3.0 0.00 0.71 0.00 72 1013.8
20210731043141 62 13 0.0 2.0 0.00 0.71 0.00 72 1013.8
20210731042545 62 25 0.0 2.0 0.00 0.71 0.00 71 1013.9
20210731042032 62 28 0.0 3.0 0.00 0.71 0.00 70 1013.9
20210731041554 62 127 0.0 6.0 0.00 0.71 0.00 69 1013.8
20210731041034 62 5 2.0 6.0 0.00 0.71 0.00 69 1013.6
20210731040038 62 296 0.0 3.0 0.00 0.71 0.00 70 1013.4
20210731035543 62 292 0.0 2.0 0.00 0.80 0.71 70 1013.3
20210731035026 63 268 0.0 5.0 0.00 0.80 0.71 70 1013.2
20210731034552 63 280 1.0 5.0 0.00 0.80 0.71 69 1013.1
20210731034025 63 261 0.0 3.0 0.00 0.80 0.71 69 1013.2
20210731033524 63 232 0.0 4.0 0.00 0.80 0.71 68 1013.3
20210731033045 63 221 1.0 6.0 0.00 0.80 0.71 68 1013.5
20210731032530 63 5 0.0 6.0 0.00 0.80 0.71 67 1013.6
20210731032023 64 206 0.0 8.0 0.00 0.80 0.71 67 1013.6
20210731031559 64 325 1.0 8.0 0.00 0.80 0.71 66 1013.6
20210731031032 64 360 1.0 6.0 0.00 0.80 0.71 65 1013.6
20210731030521 64 360 1.0 6.0 0.00 0.80 0.71 65 1013.5
20210731030033 64 59 2.0 5.0 0.00 0.80 0.71 64 1013.3
20210731025519 64 5 1.0 6.0 0.00 0.83 0.71 64 1013.2
20210731025018 64 280 1.0 8.0 0.00 0.83 0.71 63 1013.1
20210731024528 64 265 2.0 4.0 0.00 0.83 0.71 63 1013.0
20210731024034 64 68 0.0 5.0 0.00 0.83 0.71 62 1012.8
20210731023539 64 291 0.0 3.0 0.00 0.83 0.71 63 1012.8
20210731023126 64 289 1.0 3.0 0.00 0.83 0.71 62 1012.9
20210731022517 64 12 0.0 1.0 0.00 0.83 0.71 63 1012.9
20210731022017 64 12 0.0 2.0 0.00 0.83 0.71 63 1012.9
20210731021545 65 12 0.0 2.0 0.00 0.83 0.71 60 1012.9
20210731021016 65 37 0.0 2.0 0.00 0.83 0.71 60 1012.7
20210731020515 65 37 0.0 3.0 0.00 0.83 0.71 60 1012.7
20210731020038 66 104 0.0 3.0 0.00 0.83 0.71 58 1012.6
20210731015513 66 301 0.0 2.0 0.00 0.85 0.71 57 1012.6
20210731015012 66 212 0.0 3.0 0.00 0.85 0.71 58 1012.4
20210731014530 66 214 0.0 3.0 0.00 0.85 0.71 57 1012.2
20210731014011 66 254 0.0 4.0 0.00 0.85 0.71 56 1012.2
20210731013524 67 360 0.0 8.0 0.00 0.85 0.71 57 1012.0
20210731013019 67 302 1.0 8.0 0.00 0.85 0.71 56 1011.9
20210731012509 67 351 1.0 2.0 0.00 0.85 0.71 57 1011.9
20210731012023 67 325 0.0 3.0 0.00 0.85 0.71 58 1011.7
20210731011519 67 26 0.0 3.0 0.00 0.85 0.71 60 1011.7
20210731011008 66 205 0.0 1.0 0.00 0.85 0.71 60 1011.7
20210731010506 67 205 0.0 1.0 0.00 0.85 0.71 58 1011.6
20210731010014 67 205 0.0 2.0 0.00 0.85 0.71 60 1011.5
20210731005510 67 205 0.0 2.0 0.00 0.85 0.71 59 1011.5
20210731005010 67 194 0.0 2.0 0.01 0.85 0.71 59 1011.3
20210731004507 68 194 0.0 2.0 0.01 0.85 0.71 58 1011.2
20210731004005 68 360 0.0 2.0 0.01 0.85 0.71 57 1011.2
20210731003512 68 26 0.0 3.0 0.01 0.85 0.71 57 1011.0
20210731003030 68 347 0.0 3.0 0.01 0.85 0.71 57 1011.0
20210731002503 69 47 0.0 3.0 0.01 0.85 0.71 57 1010.8
20210731002003 69 47 0.0 3.0 0.01 0.85 0.71 57 1010.7
20210731001002 69 96 0.0 3.0 0.01 0.85 0.71 58 1010.5
20210731000610 70 300 0.0 3.0 0.01 0.85 0.71 58 1010.4
20210731000148 70 333 1.0 4.0 0.01 0.85 0.71 56 1010.3
20210730235601 70 208 0.0 4.0 0.01 0.85 0.71 56 1010.3
20210730235103 70 281 1.0 4.0 0.00 0.84 0.70 58 1010.2
20210730234822 71 102 1.0 7.0 0.00 0.84 0.70 57 1010.2
20210730234058 71 281 1.0 4.0 0.00 0.84 0.70 58 1010.2
20210730233559 71 24 0.0 4.0 0.00 0.84 0.70 56 1010.2
20210730233201 72 313 1.0 4.0 0.00 0.84 0.70 56 1010.1
20210730232557 72 255 0.0 4.0 0.00 0.84 0.70 57 1010.0
20210730232124 72 36 1.0 3.0 0.00 0.84 0.70 56 1009.9
20210730231705 73 5 1.0 4.0 0.00 0.84 0.70 55 1009.9
20210730231135 73 62 1.0 6.0 0.00 0.84 0.70 55 1009.7
20210730230603 73 280 1.0 6.0 0.00 0.84 0.70 55 1009.6
20210730230109 73 9 1.0 3.0 0.00 0.84 0.70 54 1009.6
20210730225614 73 78 1.0 4.0 0.00 0.84 0.70 52 1009.6
20210730225102 73 5 1.0 4.0 0.00 0.84 0.70 54 1009.4
20210730224649 73 287 1.0 4.0 0.00 0.84 0.70 53 1009.3
20210730224052 73 344 1.0 7.0 0.01 0.84 0.70 53 1009.3
20210730223606 73 32 1.0 7.0 0.01 0.84 0.70 53 1009.2
20210730223128 73 61 1.0 8.0 0.01 0.84 0.70 53 1009.1
20210730222550 74 17 2.0 8.0 0.01 0.84 0.70 51 1009.1
20210730222107 74 243 1.0 5.0 0.01 0.84 0.70 53 1009.1
20210730221700 74 110 1.0 4.0 0.01 0.84 0.70 52 1009.0
20210730221050 74 317 1.0 9.0 0.01 0.84 0.70 50 1009.0
20210730220556 75 50 1.0 9.0 0.01 0.84 0.70 49 1009.1
20210730220137 75 261 2.0 9.0 0.01 0.84 0.70 48 1008.8
20210730215547 76 218 2.0 12.0 0.01 0.86 0.70 47 1008.7
20210730215100 76 97 2.0 9.0 0.01 0.86 0.70 45 1008.7
20210730214659 76 217 1.0 6.0 0.01 0.86 0.70 47 1008.7
20210730214103 77 164 1.0 5.0 0.01 0.85 0.69 45 1008.6
20210730213545 77 279 2.0 5.0 0.01 0.85 0.69 45 1008.6
20210730213144 77 63 1.0 10.0 0.01 0.85 0.69 46 1008.5
20210730212610 77 331 3.0 10.0 0.01 0.85 0.69 47 1008.4
20210730212052 77 254 2.0 9.0 0.01 0.85 0.69 47 1008.3
20210730211604 77 45 2.0 9.0 0.01 0.85 0.69 48 1008.1
20210730211042 77 264 1.0 10.0 0.01 0.85 0.69 49 1008.0
20210730210554 78 294 3.0 11.0 0.01 0.85 0.69 47 1008.1
20210730210103 78 187 1.0 11.0 0.01 0.85 0.69 49 1008.0
20210730205541 78 71 2.0 7.0 0.01 0.89 0.69 46 1008.1
20210730205041 78 265 2.0 10.0 0.01 0.89 0.69 47 1007.9
20210730204611 78 223 2.0 12.0 0.02 0.89 0.69 45 1007.9
20210730204040 78 315 2.0 12.0 0.01 0.88 0.68 46 1007.8
20210730203540 78 265 2.0 10.0 0.01 0.88 0.68 46 1007.8
20210730203128 78 53 2.0 8.0 0.01 0.88 0.68 48 1007.8
20210730202538 78 47 2.0 8.0 0.01 0.88 0.68 46 1007.8
20210730202059 78 34 2.0 8.0 0.01 0.88 0.68 47 1007.8
20210730201633 78 201 2.0 10.0 0.01 0.88 0.68 46 1007.7
20210730201049 79 220 3.0 11.0 0.01 0.88 0.68 49 1007.7
20210730200535 79 49 1.0 11.0 0.02 0.88 0.68 49 1007.7
20210730200223 79 253 1.0 10.0 0.02 0.88 0.68 47 1007.6
20210730195600 79 46 2.0 12.0 0.02 0.94 0.68 48 1007.5
20210730195040 79 219 3.0 12.0 0.02 0.94 0.68 47 1007.6
20210730194548 79 265 2.0 10.0 0.01 0.93 0.67 49 1007.5
20210730194031 79 343 3.0 11.0 0.01 0.93 0.67 55 1007.4
20210730193534 79 294 3.0 11.0 0.01 0.93 0.67 51 1007.3